LKPO Weather Reports


Display with metric or nautical units.
time (UTC)temp
F
wind
direction
speed
MPH
gust
MPH
rain 1hr
in
rain 24hr
in
rain mn
in
humidity
%
barometer
mb
20260506212138 64 120 7.0 0.0 0.00 0.00 0.00 59
20260506202155 64 130 9.0 0.0 0.00 0.00 0.00 55
20260506192340 66 140 9.0 0.0 0.00 0.00 0.00 55
20260506182228 68 140 12.0 0.0 0.00 0.00 0.00 52
20260506172153 73 150 18.0 0.0 0.00 0.00 0.00 40
20260506162354 75 150 18.0 0.0 0.00 0.00 0.00 38
20260506152211 75 130 20.0 0.0 0.00 0.00 0.00 44
20260506142139 75 150 14.0 0.0 0.00 0.00 0.00 41
20260506132139 73 150 16.0 0.0 0.00 0.00 0.00 43
20260506122138 75 180 14.0 0.0 0.00 0.00 0.00 41
20260506112125 73 160 14.0 0.0 0.00 0.00 0.00 43
20260506102326 72 170 14.0 0.0 0.00 0.00 0.00 46
20260506092107 70 170 14.0 0.0 0.00 0.00 0.00 49
20260506082123 68 170 14.0 0.0 0.00 0.00 0.00 56
20260506072126 64 190 12.0 0.0 0.00 0.00 0.00 63
20260506062157 61 140 5.0 0.0 0.00 0.00 0.00 67
20260506042338 52 160 2.0 0.0 0.00 0.00 0.00 81
20260506032126 52 200 2.0 0.0 0.00 0.00 0.00 76
20260506022125 54 120 5.0 0.0 0.00 0.00 0.00 76
20260506012226 54 0 0.0 0.0 0.00 0.00 0.00 76
20260506002123 54 150 5.0 0.0 0.00 0.00 0.00 76
20260505232122 57 90 5.0 0.0 0.00 0.00 0.00 67
20260505222123 59 120 9.0 0.0 0.00 0.00 0.00 58